Weather History for Quillayute, WA

Change the Weather History Date:

Tuesday, August 21, 2012

  Actual Average Record
Temperature  
Mean Temperature 58 °F 59 °F  
Max Temperature 66 °F 69 °F 86 °F (2013)
Min Temperature 50 °F 50 °F 40 °F (1976)
Degree Days  
Heating Degree Days 7 6  
Month to date heating degree days 114  
Since 1 June heating degree days 602  
Since 1 July heating degree days 308  
Cooling Degree Days 0 0  
Month to date cooling degree days 0  
Year to date cooling degree days 11  
Since 1 June cooling degree days 10  
Growing Degree Days 10 (Base 50)    
Moisture  
Dew Point 53 °F    
Average Humidity 85    
Maximum Humidity 100    
Minimum Humidity 51    
Precipitation  
Precipitation T in 0.09 in 2.67 in (2001)
Month to date precipitation 1.51  
Year to date precipitation 55.74  
Sea Level Pressure  
Sea Level Pressure 30.03 in    
Wind  
Wind Speed 3 mph (West)    
Max Wind Speed 12 mph    
Max Gust Speed 17 mph    
Visibility 6 miles    
Events Fog , Rain    
T = Trace of Precipitation, MM = Missing Value Source: NWS Daily Summary

Daily Weather History Graph

Daily Weather History Graph

Search for Another Location

Airport:

Trip Planner

Search our weather history database for the weather conditions in past years. The results will help you decide how hot, cold, wet, or windy it might be!

Date:

Astronomy

Aug. 21, 2012 Rise Set
Actual Time 6:22 AM PDT 8:19 PM PDT
Civil Twilight 5:48 AM PDT 8:52 PM PDT
Nautical Twilight 5:07 AM PDT 9:33 PM PDT
Astronomical Twilight 4:22 AM PDT 10:18 PM PDT
Moon 11:26 AM PDT 9:54 PM PDT
Length of Visible Light 15h 03m
Length of Day
13h 57m
Waxing Crescent, 20% of the Moon is Illuminated
Aug 21
Waxing Crescent
Aug 24
First Quarter
Aug 31
Full
Sep 8
Last Quarter
Sep 15
New

Hourly Weather History & Observations

Time (PDT) Temp. Dew Point Humidity Pressure Visibility Wind Dir Wind Speed Gust Speed Precip Events Conditions
12:53 AM 53.1 °F 51.1 °F 93% 30.00 in 5.0 mi Calm Calm - N/A   Clear
1:20 AM 51.8 °F 48.2 °F 88% 30.00 in 3.0 mi Calm Calm - N/A   Scattered Clouds
1:22 AM 51.8 °F 50.0 °F 94% 30.00 in 1.2 mi Calm Calm - N/A   Scattered Clouds
1:27 AM 53.6 °F 51.8 °F 94% 30.00 in 0.2 mi Calm Calm - N/A Fog Fog
1:53 AM 52.0 °F 51.1 °F 97% 29.99 in 0.2 mi Calm Calm - N/A Fog Fog
2:08 AM 53.6 °F 51.8 °F 94% 29.99 in 0.2 mi Calm Calm - N/A Fog Fog
2:29 AM 53.6 °F 51.8 °F 94% 29.99 in 0.2 mi Calm Calm - N/A Fog Fog
2:53 AM 54.0 °F 52.0 °F 93% 29.99 in 0.2 mi Calm Calm - N/A Fog Fog
3:00 AM 53.6 °F 51.8 °F 94% 29.99 in 0.5 mi Calm Calm - N/A Fog Fog
3:06 AM 53.6 °F 51.8 °F 94% 29.99 in 1.5 mi Calm Calm - N/A   Overcast
3:31 AM 53.6 °F 51.8 °F 94% 29.99 in 0.8 mi Calm Calm - N/A   Overcast
3:45 AM 53.6 °F 53.6 °F 100% 29.99 in 0.2 mi Calm Calm - N/A Fog Fog
3:53 AM 54.0 °F 53.1 °F 97% 29.99 in 0.5 mi Calm Calm - N/A Fog Fog
4:06 AM 53.6 °F 53.6 °F 100% 29.99 in 0.2 mi Calm Calm - N/A Fog Fog
4:31 AM 53.6 °F 51.8 °F 94% 29.98 in 0.2 mi Calm Calm - N/A Fog Fog
4:53 AM 54.0 °F 52.0 °F 93% 29.98 in 0.2 mi East 4.6 mph - N/A Fog Fog
5:53 AM 53.1 °F 52.0 °F 96% 29.99 in 0.2 mi Calm Calm - N/A Fog Fog
6:14 AM 53.6 °F 51.8 °F 94% 29.99 in 0.8 mi Calm Calm - N/A   Overcast
6:21 AM 53.6 °F 51.8 °F 94% 29.99 in 1.2 mi East 3.5 mph - N/A   Overcast
6:27 AM 53.6 °F 51.8 °F 94% 29.99 in 2.0 mi Calm Calm - N/A   Overcast
6:44 AM 53.6 °F 51.8 °F 94% 30.00 in 3.0 mi East 3.5 mph - N/A   Overcast
6:53 AM 53.1 °F 52.0 °F 96% 30.00 in 3.0 mi Calm Calm - N/A   Overcast
7:09 AM 53.6 °F 51.8 °F 94% 30.00 in 5.0 mi Calm Calm - N/A   Overcast
7:24 AM 53.6 °F 51.8 °F 94% 30.00 in 5.0 mi Calm Calm - N/A   Overcast
7:53 AM 54.0 °F 52.0 °F 93% 30.01 in 6.0 mi Calm Calm - N/A   Overcast
8:08 AM 53.6 °F 51.8 °F 94% 30.01 in 7.0 mi Calm Calm - N/A   Overcast
8:23 AM 53.6 °F 51.8 °F 94% 30.01 in 7.0 mi Calm Calm - N/A   Overcast
8:53 AM 55.0 °F 53.1 °F 93% 30.01 in 7.0 mi Calm Calm - N/A   Overcast
9:53 AM 57.9 °F 54.0 °F 87% 30.02 in 7.0 mi Calm Calm - N/A   Overcast
10:53 AM 61.0 °F 55.0 °F 81% 30.03 in 7.0 mi SW 4.6 mph - N/A   Overcast
11:29 AM 62.6 °F 55.4 °F 77% 30.03 in 8.0 mi West 6.9 mph - N/A   Overcast
11:46 AM 62.6 °F 55.4 °F 77% 30.03 in 8.0 mi WSW 5.8 mph - N/A   Overcast
11:53 AM 62.1 °F 55.0 °F 78% 30.04 in 8.0 mi West 6.9 mph - N/A   Overcast
12:53 PM 64.9 °F 55.0 °F 70% 30.04 in 9.0 mi West 6.9 mph - N/A   Overcast
1:24 PM 64.4 °F 55.4 °F 73% 30.04 in 9.0 mi West 8.1 mph - N/A   Overcast
1:53 PM 64.9 °F 55.0 °F 70% 30.05 in 9.0 mi West 10.4 mph - N/A   Overcast
2:38 PM 64.4 °F 53.6 °F 68% 30.05 in 9.0 mi West 6.9 mph - N/A   Overcast
2:53 PM 64.0 °F 54.0 °F 70% 30.06 in 9.0 mi West 8.1 mph - N/A   Overcast
3:53 PM 64.0 °F 53.1 °F 67% 30.07 in 10.0 mi West 6.9 mph - N/A   Overcast
4:53 PM 64.9 °F 51.1 °F 61% 30.07 in 10.0 mi West 8.1 mph - N/A   Overcast
5:53 PM 64.0 °F 51.1 °F 63% 30.07 in 10.0 mi West 9.2 mph - N/A   Mostly Cloudy
6:41 PM 62.6 °F 51.8 °F 68% 30.07 in 10.0 mi West 6.9 mph - N/A   Mostly Cloudy
6:53 PM 62.1 °F 52.0 °F 70% 30.07 in 10.0 mi West 5.8 mph - N/A   Mostly Cloudy
7:21 PM 60.8 °F 51.8 °F 72% 30.07 in 10.0 mi West 3.5 mph - N/A   Scattered Clouds
7:53 PM 60.1 °F 53.1 °F 78% 30.07 in 10.0 mi Calm Calm - N/A   Overcast
8:16 PM 60.8 °F 53.6 °F 77% 30.07 in 10.0 mi Calm Calm - N/A   Overcast
8:35 PM 60.8 °F 53.6 °F 77% 30.07 in 10.0 mi Calm Calm - N/A   Overcast
8:53 PM 60.1 °F 53.1 °F 78% 30.07 in 10.0 mi Calm Calm - N/A   Overcast
9:18 PM 59.0 °F 53.6 °F 82% 30.07 in 10.0 mi Calm Calm - N/A   Overcast
9:53 PM 59.0 °F 53.1 °F 81% 30.08 in 10.0 mi Calm Calm - N/A   Overcast
10:30 PM 57.2 °F 53.6 °F 88% 30.08 in 3.0 mi Calm Calm - 0.00 in Rain Light Rain
10:53 PM 57.9 °F 55.0 °F 90% 30.08 in 7.0 mi Calm Calm - 0.00 in   Overcast
11:03 PM 57.2 °F 53.6 °F 88% 30.08 in 8.0 mi Calm Calm - N/A   Overcast
11:36 PM 57.2 °F 53.6 °F 88% 30.08 in 9.0 mi Calm Calm - N/A   Overcast
11:53 PM 57.0 °F 54.0 °F 89% 30.08 in 9.0 mi Calm Calm - N/A   Overcast